JHN EDDK-ELLX

Flight info

Callsign JHN
Flight time 0h 54m
Altitude 8000
Route NVO2Q NVO M170 LNO LNO3D
Aircraft B58/L-VGD/A

Departure

Time 2026-05-04 13:36
Airport Cologne Bonn Airport (EDDK)

Arrival

Time 2026-05-04 14:30
Airport Luxembourg-Findel International Airport (ELLX)
Time Latitude Longitude Altitude Speed Heading
2026-05-04 13:08 50.87219 7.12360 227 ft 0 kts 174°
2026-05-04 13:28 50.87162 7.12365 229 ft 11 kts 175°
2026-05-04 13:28 50.87105 7.12411 229 ft 17 kts 135°
2026-05-04 13:29 50.86995 7.12570 231 ft 25 kts 137°
2026-05-04 13:29 50.86846 7.12788 230 ft 32 kts 136°
2026-05-04 13:29 50.86667 7.13051 232 ft 35 kts 137°
2026-05-04 13:29 50.86506 7.13281 235 ft 24 kts 130°
2026-05-04 13:30 50.86551 7.13516 233 ft 26 kts 62°
2026-05-04 13:30 50.86607 7.13718 236 ft 32 kts 65°
2026-05-04 13:30 50.86695 7.13990 245 ft 9 kts 71°
2026-05-04 13:30 50.86723 7.14146 247 ft 20 kts 107°
2026-05-04 13:31 50.86678 7.14217 250 ft 0 kts 134°
2026-05-04 13:34 50.86630 7.14300 252 ft 15 kts 134°
2026-05-04 13:35 50.86589 7.14318 252 ft 6 kts 245°
2026-05-04 13:35 50.86191 7.12988 333 ft 120 kts 244°
2026-05-04 13:35 50.85810 7.11803 749 ft 118 kts 246°
2026-05-04 13:36 50.85522 7.10668 1236 ft 109 kts 249°
2026-05-04 13:36 50.85229 7.09614 1693 ft 102 kts 238°
2026-05-04 13:36 50.84837 7.08689 2094 ft 101 kts 230°
2026-05-04 13:36 50.84408 7.07778 2411 ft 106 kts 231°
2026-05-04 13:37 50.84104 7.06715 2719 ft 109 kts 251°
2026-05-04 13:37 50.83799 7.05666 3017 ft 110 kts 225°
2026-05-04 13:37 50.83173 7.05097 3371 ft 101 kts 184°
2026-05-04 13:37 50.82454 7.05420 3560 ft 115 kts 168°
2026-05-04 13:38 50.81747 7.05500 4078 ft 99 kts 187°
2026-05-04 13:38 50.80997 7.05313 4274 ft 110 kts 187°
2026-05-04 13:38 50.80222 7.05293 4591 ft 110 kts 182°
2026-05-04 13:38 50.79495 7.04992 4921 ft 106 kts 213°
2026-05-04 13:39 50.78894 7.04269 5167 ft 113 kts 209°
2026-05-04 13:39 50.78222 7.03767 5492 ft 110 kts 209°
2026-05-04 13:39 50.77673 7.02882 5755 ft 111 kts 234°
2026-05-04 13:39 50.77272 7.01819 5947 ft 122 kts 234°
2026-05-04 13:40 50.76808 7.00707 6235 ft 122 kts 237°
2026-05-04 13:40 50.76473 6.99469 6488 ft 124 kts 251°
2026-05-04 13:40 50.76439 6.98103 6729 ft 127 kts 277°
2026-05-04 13:40 50.76638 6.96745 6972 ft 127 kts 279°
2026-05-04 13:41 50.76853 6.95392 7215 ft 127 kts 280°
2026-05-04 13:41 50.77079 6.94049 7458 ft 126 kts 281°
2026-05-04 13:41 50.77305 6.92721 7703 ft 124 kts 281°
2026-05-04 13:42 50.77755 6.90092 8044 ft 134 kts 281°
2026-05-04 13:42 50.78009 6.88609 8053 ft 145 kts 282°
2026-05-04 13:42 50.78280 6.87034 8053 ft 152 kts 282°
2026-05-04 13:42 50.78562 6.85395 8054 ft 156 kts 282°
2026-05-04 13:43 50.78845 6.83747 8053 ft 155 kts 282°
2026-05-04 13:43 50.79126 6.82112 8053 ft 154 kts 282°
2026-05-04 13:43 50.79403 6.80487 8053 ft 153 kts 282°
2026-05-04 13:43 50.79679 6.78872 8052 ft 152 kts 282°
2026-05-04 13:44 50.79953 6.77270 8049 ft 151 kts 282°
2026-05-04 13:44 50.80227 6.75654 8035 ft 156 kts 282°
2026-05-04 13:44 50.80511 6.73988 8035 ft 162 kts 282°
2026-05-04 13:44 50.80806 6.72255 8044 ft 165 kts 282°
2026-05-04 13:45 50.81107 6.70490 8045 ft 167 kts 282°
2026-05-04 13:45 50.81410 6.68703 8052 ft 169 kts 282°
2026-05-04 13:45 50.81718 6.66891 8052 ft 172 kts 282°
2026-05-04 13:45 50.81773 6.65042 8055 ft 170 kts 248°
2026-05-04 13:46 50.81216 6.63402 8052 ft 170 kts 230°
2026-05-04 13:46 50.80642 6.61769 8054 ft 173 kts 246°
2026-05-04 13:46 50.80177 6.60042 8051 ft 174 kts 244°
2026-05-04 13:46 50.79720 6.58270 8053 ft 175 kts 246°
2026-05-04 13:47 50.79289 6.56469 8053 ft 176 kts 247°
2026-05-04 13:47 50.78859 6.54657 8048 ft 176 kts 247°
2026-05-04 13:47 50.78429 6.52846 8049 ft 176 kts 247°
2026-05-04 13:47 50.77998 6.51034 8046 ft 176 kts 247°
2026-05-04 13:48 50.77566 6.49220 8049 ft 177 kts 248°
2026-05-04 13:48 50.77131 6.47397 8047 ft 178 kts 247°
2026-05-04 13:48 50.76695 6.45568 8045 ft 177 kts 247°
2026-05-04 13:48 50.76265 6.43769 8047 ft 178 kts 247°
2026-05-04 13:49 50.75828 6.41944 8045 ft 178 kts 247°
2026-05-04 13:49 50.75394 6.40121 8041 ft 177 kts 247°
2026-05-04 13:49 50.74961 6.38317 8037 ft 175 kts 247°
2026-05-04 13:49 50.74533 6.36535 8034 ft 173 kts 247°
2026-05-04 13:50 50.74109 6.34764 8034 ft 172 kts 247°
2026-05-04 13:50 50.73684 6.32996 8029 ft 172 kts 247°
2026-05-04 13:50 50.73260 6.31229 8038 ft 173 kts 246°
2026-05-04 13:50 50.72820 6.29455 8036 ft 174 kts 244°
2026-05-04 13:51 50.72313 6.27745 8034 ft 174 kts 242°
2026-05-04 13:51 50.71828 6.26000 8040 ft 174 kts 246°
2026-05-04 13:51 50.71391 6.24210 8034 ft 175 kts 248°
2026-05-04 13:51 50.70969 6.22419 8034 ft 174 kts 246°
2026-05-04 13:52 50.70114 6.18831 8030 ft 175 kts 247°
2026-05-04 13:52 50.69686 6.17035 8040 ft 175 kts 247°
2026-05-04 13:52 50.69256 6.15232 8040 ft 176 kts 247°
2026-05-04 13:53 50.68824 6.13428 8041 ft 176 kts 247°
2026-05-04 13:53 50.68392 6.11617 8041 ft 177 kts 246°
2026-05-04 13:53 50.67961 6.09818 8044 ft 179 kts 247°
2026-05-04 13:54 50.67078 6.06135 8052 ft 180 kts 247°
2026-05-04 13:54 50.66638 6.04295 8052 ft 179 kts 247°
2026-05-04 13:54 50.65751 6.00610 8053 ft 181 kts 247°
2026-05-04 13:55 50.65305 5.98751 8047 ft 182 kts 247°
2026-05-04 13:55 50.64411 5.95041 8040 ft 182 kts 248°
2026-05-04 13:55 50.63967 5.93196 8040 ft 179 kts 248°
2026-05-04 13:56 50.63526 5.91373 8043 ft 177 kts 248°
2026-05-04 13:56 50.63090 5.89567 8038 ft 176 kts 247°
2026-05-04 13:56 50.62217 5.85955 7998 ft 175 kts 247°
2026-05-04 13:57 50.61783 5.84165 7994 ft 174 kts 248°
2026-05-04 13:57 50.61352 5.82386 7992 ft 173 kts 246°
2026-05-04 13:58 50.60070 5.77108 7988 ft 173 kts 246°
2026-05-04 13:58 50.59208 5.73566 7984 ft 173 kts 247°
2026-05-04 13:58 50.58777 5.71795 7983 ft 174 kts 246°
2026-05-04 13:59 50.58345 5.70023 7987 ft 173 kts 247°
2026-05-04 13:59 50.57913 5.68254 7986 ft 173 kts 248°
2026-05-04 13:59 50.56221 5.66228 7985 ft 168 kts 172°
2026-05-04 14:00 50.55179 5.66118 7991 ft 168 kts 196°
2026-05-04 14:00 50.52948 5.64967 7989 ft 169 kts 197°
2026-05-04 14:00 50.51822 5.64405 7989 ft 170 kts 197°
2026-05-04 14:01 50.50688 5.63846 7992 ft 172 kts 196°
2026-05-04 14:01 50.49523 5.63385 7992 ft 173 kts 186°
2026-05-04 14:01 50.47169 5.63756 7994 ft 171 kts 156°
2026-05-04 14:02 50.46118 5.64562 7997 ft 170 kts 151°
2026-05-04 14:02 50.45075 5.65435 7995 ft 170 kts 151°
2026-05-04 14:02 50.44029 5.66298 7998 ft 170 kts 152°
2026-05-04 14:02 50.42981 5.67155 7990 ft 170 kts 152°
2026-05-04 14:03 50.41935 5.68010 7993 ft 169 kts 152°
2026-05-04 14:03 50.40891 5.68861 7993 ft 169 kts 151°
2026-05-04 14:03 50.39846 5.69714 7993 ft 169 kts 152°
2026-05-04 14:03 50.38802 5.70564 7995 ft 169 kts 152°
2026-05-04 14:04 50.36721 5.72261 7994 ft 171 kts 152°
2026-05-04 14:04 50.35663 5.73120 7995 ft 171 kts 152°
2026-05-04 14:04 50.34606 5.73983 7994 ft 171 kts 152°
2026-05-04 14:05 50.32500 5.75694 7990 ft 170 kts 152°
2026-05-04 14:05 50.31456 5.76543 7992 ft 169 kts 152°
2026-05-04 14:05 50.30412 5.77391 7995 ft 168 kts 152°
2026-05-04 14:06 50.29375 5.78233 7999 ft 168 kts 152°
2026-05-04 14:06 50.28341 5.79072 7994 ft 168 kts 152°
2026-05-04 14:06 50.27319 5.79900 8000 ft 168 kts 152°
2026-05-04 14:06 50.26280 5.80743 7994 ft 168 kts 152°
2026-05-04 14:07 50.25243 5.81584 7998 ft 168 kts 152°
2026-05-04 14:07 50.24208 5.82422 7999 ft 168 kts 151°
2026-05-04 14:07 50.23171 5.83261 7999 ft 168 kts 152°
2026-05-04 14:07 50.22132 5.84101 7998 ft 168 kts 152°
2026-05-04 14:08 50.21090 5.84944 7997 ft 169 kts 152°
2026-05-04 14:08 50.20048 5.85787 8007 ft 169 kts 152°
2026-05-04 14:08 50.19005 5.86629 8004 ft 169 kts 152°
2026-05-04 14:08 50.17962 5.87472 8002 ft 169 kts 152°
2026-05-04 14:09 50.15892 5.89139 7561 ft 160 kts 152°
2026-05-04 14:09 50.14876 5.89723 7341 ft 156 kts 162°
2026-05-04 14:10 50.12768 5.90657 6902 ft 159 kts 163°
2026-05-04 14:10 50.11685 5.91146 6690 ft 165 kts 163°
2026-05-04 14:10 50.10570 5.91656 6471 ft 169 kts 162°
2026-05-04 14:10 50.09440 5.92159 6253 ft 169 kts 163°
2026-05-04 14:11 50.08311 5.92683 6048 ft 168 kts 163°
2026-05-04 14:11 50.06267 5.93654 6518 ft 144 kts 163°
2026-05-04 14:11 50.05341 5.94089 6732 ft 136 kts 165°
2026-05-04 14:12 50.04448 5.94564 6967 ft 135 kts 163°
2026-05-04 14:12 50.03541 5.95103 7006 ft 144 kts 163°
2026-05-04 14:12 50.01739 5.96233 7008 ft 140 kts 163°
2026-05-04 14:13 50.00806 5.96427 7003 ft 136 kts 190°
2026-05-04 14:13 49.99889 5.96157 7004 ft 137 kts 192°
2026-05-04 14:13 49.98955 5.95873 7005 ft 137 kts 192°
2026-05-04 14:13 49.98013 5.95587 7006 ft 139 kts 192°
2026-05-04 14:14 49.97068 5.95302 7003 ft 138 kts 191°
2026-05-04 14:14 49.95173 5.94724 7002 ft 139 kts 191°
2026-05-04 14:14 49.94224 5.94428 7003 ft 140 kts 192°
2026-05-04 14:15 49.92297 5.93832 6999 ft 141 kts 192°
2026-05-04 14:15 49.90373 5.93240 7001 ft 143 kts 192°
2026-05-04 14:16 49.88429 5.92654 7004 ft 142 kts 192°
2026-05-04 14:16 49.87459 5.92360 7006 ft 142 kts 191°
2026-05-04 14:17 49.85506 5.91755 6857 ft 149 kts 192°
2026-05-04 14:17 49.84480 5.91434 6623 ft 152 kts 192°
2026-05-04 14:17 49.82372 5.90778 6134 ft 156 kts 192°
2026-05-04 14:18 49.81303 5.90450 5883 ft 157 kts 191°
2026-05-04 14:18 49.79182 5.89755 5382 ft 157 kts 192°
2026-05-04 14:19 49.77019 5.89055 4884 ft 160 kts 192°
2026-05-04 14:19 49.75923 5.88710 4630 ft 161 kts 192°
2026-05-04 14:19 49.74819 5.88364 4375 ft 163 kts 192°
2026-05-04 14:19 49.73705 5.88012 4117 ft 164 kts 192°
2026-05-04 14:20 49.72596 5.87655 3997 ft 159 kts 192°
2026-05-04 14:20 49.71580 5.87089 3991 ft 156 kts 219°
2026-05-04 14:20 49.71002 5.85665 3997 ft 158 kts 241°
2026-05-04 14:21 49.70030 5.82660 3991 ft 158 kts 240°
2026-05-04 14:21 49.69535 5.81149 3988 ft 157 kts 240°
2026-05-04 14:21 49.68789 5.80013 3989 ft 153 kts 196°
2026-05-04 14:21 49.67766 5.80223 3997 ft 152 kts 158°
2026-05-04 14:22 49.66805 5.80898 4003 ft 152 kts 157°
2026-05-04 14:22 49.65838 5.81569 4006 ft 153 kts 157°
2026-05-04 14:22 49.64863 5.82245 4005 ft 154 kts 156°
2026-05-04 14:22 49.63884 5.82923 4005 ft 155 kts 157°
2026-05-04 14:23 49.61868 5.84327 3790 ft 167 kts 156°
2026-05-04 14:23 49.60790 5.85074 3584 ft 172 kts 158°
2026-05-04 14:23 49.59711 5.85858 3401 ft 175 kts 156°
2026-05-04 14:24 49.58609 5.86667 3206 ft 176 kts 157°
2026-05-04 14:24 49.57498 5.87479 3016 ft 177 kts 156°
2026-05-04 14:24 49.56402 5.88249 3003 ft 170 kts 156°
2026-05-04 14:24 49.55343 5.88992 3004 ft 166 kts 156°
2026-05-04 14:25 49.54362 5.89875 2990 ft 165 kts 134°
2026-05-04 14:25 49.53993 5.93329 2984 ft 165 kts 95°
2026-05-04 14:25 49.53982 5.95096 2999 ft 166 kts 95°
2026-05-04 14:26 49.53981 5.96899 3002 ft 177 kts 95°
2026-05-04 14:26 49.54151 5.98830 3000 ft 193 kts 70°
2026-05-04 14:26 49.54965 6.00535 3006 ft 200 kts 58°
2026-05-04 14:26 49.55687 6.02370 3003 ft 200 kts 64°
2026-05-04 14:27 49.56361 6.04199 2995 ft 192 kts 64°
2026-05-04 14:27 49.57011 6.05950 2986 ft 184 kts 64°
2026-05-04 14:27 49.57640 6.07638 2875 ft 182 kts 64°
2026-05-04 14:27 49.58272 6.09341 2628 ft 179 kts 64°
2026-05-04 14:28 49.58849 6.10882 2399 ft 154 kts 64°
2026-05-04 14:28 49.59341 6.12230 2197 ft 142 kts 63°
2026-05-04 14:28 49.59823 6.13459 2031 ft 127 kts 63°
2026-05-04 14:28 49.60232 6.14555 1949 ft 106 kts 66°
2026-05-04 14:29 49.60994 6.16687 1520 ft 106 kts 64°
2026-05-04 14:29 49.61693 6.18595 1239 ft 99 kts 60°
2026-05-04 14:30 49.61985 6.19375 1198 ft 56 kts 60°
2026-05-04 14:30 49.62115 6.19624 1200 ft 11 kts 332°
2026-05-04 14:30 49.62239 6.19583 1192 ft 16 kts 56°
2026-05-04 14:31 49.62291 6.19723 1192 ft 18 kts 63°
2026-05-04 14:31 49.62459 6.19808 1190 ft 21 kts 39°
2026-05-04 14:32 49.62514 6.19897 1190 ft 0 kts 58°